CW3642 Weather Reports


time (UTC)temp
C
wind
direction
speed
KPH
gust
KPH
rain 1hr
cm
rain 24hr
cm
rain mn
cm
humidity
%
barometer
mb
20260503021833 1 360 0.0 0.0 0.00 0.00 0.00 75 1013.3
20260503021333 1 360 0.0 0.0 0.00 0.00 0.00 73 1013.3
20260503015322 1 360 0.0 8.0 0.00 0.00 0.00 68 1013.2
20260503013822 2 360 0.0 8.0 0.00 0.00 0.00 65 1013.3
20260503013322 2 360 0.0 8.0 0.00 0.00 0.00 64 1013.3
20260503011822 3 360 0.0 8.0 0.00 0.00 0.00 61 1013.4
20260503011322 4 360 0.0 8.0 0.00 0.00 0.00 59 1013.4
20260503010822 4 360 0.0 8.0 0.00 0.00 0.00 58 1013.4
20260503010322 5 360 0.0 8.0 0.00 0.00 0.00 56 1013.4
20260503005322 5 360 0.0 8.0 0.00 0.00 0.00 53 1013.4
20260503004822 5 360 0.0 8.0 0.00 0.00 0.00 51 1013.4
20260503004322 6 360 0.0 8.0 0.00 0.00 0.00 48 1013.4
20260503003822 6 360 0.0 8.0 0.00 0.00 0.00 47 1013.3
20260503002822 6 360 0.0 8.0 0.00 0.00 0.00 44 1013.5
20260503002322 6 360 0.0 8.0 0.00 0.00 0.00 43 1013.5
20260503001822 6 360 4.8 8.0 0.00 0.00 0.00 42 1013.5
20260503001322 7 360 1.6 8.0 0.00 0.00 0.00 41 1013.5
20260503000822 7 360 8.0 8.0 0.00 0.00 0.00 40 1013.6
20260502235822 7 360 8.0 8.0 0.00 0.00 0.00 40 1013.6
20260502233822 8 360 3.2 8.0 0.00 0.00 0.00 37 1013.8
20260502233322 8 360 3.2 8.0 0.00 0.00 0.00 35 1013.8
20260502232822 8 360 4.8 8.0 0.00 0.00 0.00 35 1013.8
20260502232322 8 360 3.2 8.0 0.00 0.00 0.00 36 1013.9
20260502231822 8 360 4.8 8.0 0.00 0.00 0.00 34 1013.9
20260502230823 8 360 3.2 8.0 0.00 0.00 0.00 37 1013.9
20260502230322 8 360 4.8 8.0 0.00 0.00 0.00 36 1013.9
20260502225822 8 360 0.0 8.0 0.00 0.00 0.00 35 1014.0
20260502225322 8 360 0.0 8.0 0.00 0.00 0.00 38 1013.9
20260502224822 8 360 0.0 8.0 0.00 0.00 0.00 36 1013.8
20260502223822 8 360 0.0 8.0 0.00 0.00 0.00 36 1013.9
20260502223322 8 360 0.0 8.0 0.00 0.00 0.00 37 1013.9
20260502222822 8 360 0.0 8.0 0.00 0.00 0.00 34 1014.0
20260502221322 8 360 0.0 8.0 0.00 0.00 0.00 33 1014.0
20260502220822 9 360 0.0 12.9 0.00 0.00 0.00 34 1014.1
20260502215834 10 360 1.6 12.9 0.00 0.00 0.00 33 1014.4
20260502214834 10 360 0.0 12.9 0.00 0.00 0.00 31 1014.5
20260502214334 10 360 4.8 12.9 0.00 0.00 0.00 32 1014.6
20260502213334 10 360 8.0 12.9 0.00 0.00 0.00 33 1014.8
20260502212834 10 360 9.7 12.9 0.00 0.00 0.00 32 1014.9
20260502212334 10 360 8.0 12.9 0.00 0.00 0.00 33 1014.9
20260502211833 10 360 1.6 12.9 0.00 0.00 0.00 33 1014.9
20260502211334 10 5 1.6 12.9 0.00 0.00 0.00 35 1014.9
20260502210834 10 360 0.0 12.9 0.00 0.00 0.00 33 1015.0
20260502205834 10 360 4.8 12.9 0.00 0.00 0.00 33 1015.1
20260502205334 10 360 6.4 12.9 0.00 0.00 0.00 35 1015.1
20260502204834 10 360 16.1 12.9 0.00 0.00 0.00 34 1015.2
20260502203834 9 360 8.0 12.9 0.00 0.00 0.00 36 1015.2
20260502203334 9 360 0.0 12.9 0.00 0.00 0.00 35 1015.2
20260502202834 9 360 0.0 12.9 0.00 0.00 0.00 34 1015.4
20260502202334 9 360 1.6 12.9 0.00 0.00 0.00 35 1015.4
20260502201834 9 360 1.6 12.9 0.00 0.00 0.00 36 1015.5
20260502200834 9 360 0.0 12.9 0.00 0.00 0.00 38 1015.5
20260502200334 9 360 0.0 12.9 0.00 0.00 0.00 36 1015.6
20260502195834 9 360 0.0 12.9 0.00 0.00 0.00 35 1015.7
20260502194334 9 360 9.7 12.9 0.00 0.00 0.00 37 1015.9
20260502193334 8 360 8.0 12.9 0.00 0.00 0.00 38 1015.9
20260502192834 8 360 1.6 12.9 0.00 0.00 0.00 40 1016.0
20260502192334 8 360 6.4 12.9 0.00 0.00 0.00 40 1016.1
20260502191334 8 360 4.8 12.9 0.00 0.00 0.00 39 1016.2
20260502190834 8 360 4.8 12.9 0.00 0.00 0.00 40 1016.2
20260502190334 8 360 6.4 12.9 0.00 0.00 0.00 40 1016.4
20260502185834 8 360 6.4 12.9 0.00 0.00 0.00 40 1016.4
20260502185334 8 360 3.2 12.9 0.00 0.00 0.00 40 1016.5
20260502184834 8 360 3.2 12.9 0.00 0.00 0.00 40 1016.5
20260502184334 8 360 0.0 12.9 0.00 0.00 0.00 40 1016.5
20260502183834 8 360 8.0 12.9 0.00 0.00 0.00 38 1016.6
20260502183334 8 360 4.8 12.9 0.00 0.00 0.00 41 1016.7
20260502182334 8 360 4.8 12.9 0.00 0.00 0.00 42 1016.7
20260502180834 7 360 3.2 12.9 0.00 0.00 0.00 42 1016.8
20260502170349 7 360 3.2 6.4 0.00 0.00 0.00 45 1017.0
20260502163849 7 360 3.2 6.4 0.00 0.00 0.00 49 1017.2
20260502163349 7 360 4.8 6.4 0.00 0.00 0.00 49 1017.3
20260502162819 7 360 0.0 6.4 0.00 0.00 0.00 48 1017.3
20260502162349 7 360 0.0 6.4 0.00 0.00 0.00 50 1017.3
20260502161319 7 360 1.6 6.4 0.00 0.00 0.00 55 1017.3
20260502160349 7 360 4.8 6.4 0.00 0.00 0.00 53 1017.4
20260502151349 6 360 3.2 6.4 0.00 0.00 0.00 57 1017.5
20260502130328 3 360 0.0 0.0 0.00 0.00 0.00 77 1017.7
20260502123328 1 360 0.0 0.0 0.00 0.00 0.00 90 1017.7
20260502122828 1 360 0.0 0.0 0.00 0.00 0.00 93 1017.7
20260502121828 1 360 0.0 0.0 0.00 0.00 0.00 94 1017.8
20260502121328 0 360 0.0 0.0 0.00 0.00 0.00 94 1017.7
20260502120828 0 360 0.0 0.0 0.00 0.00 0.00 94 1017.7
20260502115828 0 360 0.0 0.0 0.00 0.00 0.00 93 1017.6
20260502115328 -1 360 0.0 0.0 0.00 0.00 0.00 93 1017.6
20260502114328 -2 360 0.0 0.0 0.00 0.00 0.00 94 1017.6
20260502113828 -3 360 0.0 0.0 0.00 0.00 0.00 94 1017.5
20260502113328 -3 360 0.0 0.0 0.00 0.00 0.00 94 1017.4
20260502112828 -3 360 0.0 0.0 0.00 0.00 0.00 94 1017.4
20260502112328 -4 360 0.0 0.0 0.00 0.00 0.00 94 1017.2
20260502111828 -4 360 0.0 0.0 0.00 0.00 0.00 94 1017.2
20260502111328 -4 360 0.0 0.0 0.00 0.00 0.00 94 1017.2
20260502110828 -4 360 0.0 0.0 0.00 0.00 0.00 94 1017.2
20260502110328 -4 360 0.0 0.0 0.00 0.00 0.00 94 1017.2
20260502105828 -4 360 0.0 0.0 0.00 0.00 0.00 94 1017.2
20260502105328 -4 360 0.0 0.0 0.00 0.00 0.00 94 1017.4
20260502104828 -4 360 0.0 0.0 0.00 0.00 0.00 94 1017.3
20260502104328 -4 360 0.0 0.0 0.00 0.00 0.00 94 1017.3
20260502103828 -4 360 0.0 0.0 0.00 0.00 0.00 94 1017.4
20260502102828 -4 360 0.0 0.0 0.00 0.00 0.00 94 1017.3
20260502102328 -4 360 0.0 0.0 0.00 0.00 0.00 94 1017.4
20260502101328 -4 360 0.0 0.0 0.00 0.00 0.00 94 1017.2
20260502100828 -4 360 0.0 0.0 0.00 0.00 0.00 94 1017.2
20260502091344 -3 360 0.0 0.0 0.00 0.00 0.00 94 1017.2
20260502090844 -3 360 0.0 0.0 0.00 0.00 0.00 94 1017.1
20260502090344 -3 360 0.0 0.0 0.00 0.00 0.00 94 1017.1
20260502071344 -3 360 0.0 0.0 0.00 0.00 0.00 94 1016.9
20260502070844 -3 360 0.0 0.0 0.00 0.00 0.00 94 1016.9
20260502065844 -2 360 0.0 0.0 0.00 0.00 0.00 94 1016.9
20260502065344 -2 360 0.0 0.0 0.00 0.00 0.00 94 1017.1
20260502064844 -2 360 0.0 0.0 0.00 0.00 0.00 93 1017.1
20260502064344 -2 360 0.0 0.0 0.00 0.00 0.00 93 1017.0
20260502063844 -2 360 0.0 0.0 0.00 0.00 0.00 94 1017.1
20260502063344 -2 360 0.0 0.0 0.00 0.00 0.00 94 1017.1
20260502062844 -2 360 0.0 0.0 0.00 0.00 0.00 93 1017.1
20260502062344 -2 360 0.0 0.0 0.00 0.00 0.00 93 1017.1
20260502061844 -2 360 0.0 0.0 0.00 0.00 0.00 93 1017.1
20260502060844 -2 360 0.0 0.0 0.00 0.00 0.00 93 1017.1
20260502055846 -2 360 0.0 0.0 0.00 0.00 0.00 93 1017.0
20260502055346 -2 360 0.0 0.0 0.00 0.00 0.00 93 1017.0
20260502054846 -2 360 0.0 0.0 0.00 0.00 0.00 93 1017.0
20260502053846 -2 360 0.0 0.0 0.00 0.00 0.00 93 1017.0
20260502053346 -2 360 0.0 0.0 0.00 0.00 0.00 93 1017.1
20260502052846 -2 360 0.0 0.0 0.00 0.00 0.00 93 1017.1
20260502052346 -2 360 0.0 0.0 0.00 0.00 0.00 93 1017.0
20260502051846 -2 360 0.0 0.0 0.00 0.00 0.00 93 1017.0
20260502051346 -2 360 0.0 0.0 0.00 0.00 0.00 93 1017.0
20260502050346 -1 360 0.0 0.0 0.00 0.00 0.00 93 1017.0
20260502045846 -1 360 0.0 0.0 0.00 0.00 0.00 93 1017.0
20260502045346 -1 360 0.0 0.0 0.00 0.00 0.00 93 1017.0
20260502044846 -1 360 0.0 0.0 0.00 0.00 0.00 92 1017.0
20260502044346 -1 360 0.0 0.0 0.00 0.00 0.00 93 1017.2
20260502043346 -1 360 0.0 0.0 0.00 0.00 0.00 92 1017.1
20260502042846 -1 360 0.0 0.0 0.00 0.00 0.00 92 1017.2
20260502041846 -1 360 0.0 0.0 0.00 0.00 0.00 92 1017.2
20260502041346 -1 360 0.0 0.0 0.00 0.00 0.00 92 1017.2
20260502040846 -1 360 0.0 0.0 0.00 0.00 0.00 92 1017.2
20260502035846 -1 360 0.0 0.0 0.00 0.00 0.00 91 1017.2
20260502035346 0 360 0.0 0.0 0.00 0.00 0.00 91 1017.0
20260502034846 0 360 0.0 0.0 0.00 0.00 0.00 91 1017.1
20260502034346 0 360 0.0 0.0 0.00 0.00 0.00 91 1017.0
20260502033346 0 360 0.0 0.0 0.00 0.00 0.00 90 1017.0
20260502032846 0 360 0.0 0.0 0.00 0.00 0.00 90 1017.0
20260502032346 0 360 0.0 0.0 0.00 0.00 0.00 90 1017.1
20260502031846 0 360 0.0 0.0 0.00 0.00 0.00 90 1017.1
20260502031346 0 360 0.0 0.0 0.00 0.00 0.00 89 1017.1
20260502030846 0 360 0.0 0.0 0.00 0.00 0.00 89 1017.1
20260502030346 0 360 0.0 0.0 0.00 0.00 0.00 89 1017.1
20260502025846 0 360 0.0 0.0 0.00 0.00 0.00 88 1017.1
20260502025346 0 360 0.0 0.0 0.00 0.00 0.00 88 1017.2
20260502024346 0 360 0.0 0.0 0.00 0.00 0.00 88 1017.1
20260502023846 1 360 0.0 0.0 0.00 0.00 0.00 88 1017.3
20260502023346 1 360 0.0 0.0 0.00 0.00 0.00 87 1017.3
20260502022846 1 360 0.0 0.0 0.00 0.00 0.00 86 1017.3
20260502022346 1 360 0.0 0.0 0.00 0.00 0.00 86 1017.3